Regional Weather Roundup
Issued by NWS

Home | Current Version | Previous Version | Text Only | Print | Product List | Glossary On
Versions: 1 2 3 4 5 6 7 8 9 10 11 12 13 14 15 16 17 18 19 20 21 22 23 24 25 26 27 28 29 30 31 32 33 34 35 36 37 38 39 40 41 42 43 44 45 46 47 48 49 50
000
ASUS43 KDTX 291710
RWRMI
MICHIGAN HOURLY REGIONAL WEATHER ROUNDUP
NATIONAL WEATHER SERVICE DETROIT/PONTIAC MI
100 PM EDT THU SEP 29 2016

NOTE: "FAIR" INDICATES FEW OR NO CLOUDS BELOW 12,000 FEET WITH NO
SIGNIFICANT WEATHER AND/OR OBSTRUCTION TO VISIBILITY.

MIZ047>049-052>055-059>063-066>070-074>076-081>083-291800-
SOUTHEAST LOWER MICHIGAN

CITY           SKY/WX    TMP DP  RH WIND       PRES   REMARKS
ADRIAN         PTSUNNY   65  59  81 NE15      30.17S
ALMA           HVY RAIN  61  58  91 NE15G24   30.27R
ANN ARBOR      LGT RAIN  60  60 100 N12       30.17S FOG
BAD AXE        CLOUDY    60  53  78 NE12G20   30.29S
CARO           CLOUDY    60  56  87 E12       30.26R
DETROIT CITY   CLOUDY    62  61  96 NE6       30.18S
DETROIT        HVY RAIN  60  60 100 N6        30.18S FOG
FLINT          LGT RAIN  60  58  92 NE13      30.23R
GROSSE ILE     CLOUDY    61  59  94 N10       30.17S
HILLSDALE      CLOUDY    63  57  82 E12       30.15S
HOWELL         LGT RAIN  60  59  97 NE9       30.20S

CITY           SKY/WX    TMP DP  RH WIND       PRES   REMARKS
JACKSON        CLOUDY    62  60  93 E16       30.18R
LAMBERTVILLE   PTSUNNY   65  57  75 NE7       30.16S
LANSING        CLOUDY    60  57  89 NE16G24   30.21S
LAPEER         CLOUDY    61  59  94 NE9       30.23S
MASON          RAIN      60  58  94 NE12      30.19S
MONROE         LGT RAIN  62  59  90 NE6       30.16S
MT. CLEMENS    PTSUNNY   66  60  82 E13       30.17S
PONTIAC        LGT RAIN  61  58  90 NE12      30.19S
PORT HURON     LGT RAIN  63  59  88 E9        30.23R
TRI CITIES     CLOUDY    62  56  80 NE16      30.27S
MIDLAND        CLOUDY    62  53  74 NE16G23   30.28R
TROY           CLOUDY    63  60  91 N5        30.20S
SAGINAW HB     DRIZZLE   61  55  82 NE13      30.26R
$$
MIZ043>046-050>051-056>058-064>065-071>073-077>080-291800-
SOUTHWEST LOWER MICHIGAN

CITY           SKY/WX    TMP DP  RH WIND       PRES   REMARKS
BATTLE CREEK   CLOUDY    63  59  87 NE14G22   30.17S
BENTON HARBOR  CLOUDY    63  59  87 NE8       30.16S
BIG RAPIDS     PTSUNNY   65  55  69 E9G17     30.27S
COLDWATER      CLOUDY    65  58  78 E10G21    30.15S
FREMONT        CLOUDY    64  55  73 E15G22    30.26R
HOLLAND        LGT RAIN  62  58  86 NE13G22   30.21R
GRAND RAPIDS   LGT RAIN  60  57  89 NE17      30.22R
IONIA          CLOUDY    60  58  92 NE21G28   30.21F
KALAMAZOO      CLOUDY    64  57  78 VRB7      30.18R
LUDINGTON      CLOUDY    68  56  65 NE13G18   30.28S
MARSHALL       CLOUDY    64  60  88 E8        30.16F
MOUNT PLEASANT CLOUDY    63  55  75 NE9G18    30.27R
MUSKEGON       CLOUDY    64  57  78 NE17G28   30.24S
SOUTH HAVEN    CLOUDY    63  60  92 NE12G18   30.18R
$$
MIZ016>042-291800-
NORTHERN LOWER MICHIGAN

CITY           SKY/WX    TMP DP  RH WIND       PRES   REMARKS
ALPENA         CLOUDY    63  52  67 NE18G26   30.38S
BEAVER ISLAND  CLOUDY    62  57  83 NE12G17   30.41S
BELLAIRE       PTSUNNY   68  53  58 NE14G23   30.35S
CADILLAC       MOSUNNY   66  51  60 NE15G21   30.30F
CHARLEVOIX     MOSUNNY   65  56  71 E16       30.41S
FRANKFORT      MOSUNNY   69  55  59 NE8       30.33S
GAYLORD        MOSUNNY   65  51  60 E16G23    30.36F
GRAYLING       MOSUNNY   64  51  64 NE17G26   30.35S
HARBOR SPRINGS CLOUDY    64  56  77 E15G22    30.40R HAZE
HOUGHTON LAKE  MOSUNNY   66  53  63 NE13G24   30.32F
MANISTEE       SUNNY     67  55  65 NE13      30.30S
OSCODA         MOSUNNY   65  53  64 E17G24    30.33R
PELLSTON       PTSUNNY   63  55  75 E12       30.41S
ROGERS CITY    MOSUNNY   63  57  79 NE13      30.41S
TRAVERSE CITY  MOSUNNY   68  54  60 NE13      30.33S
$$
MIZ007>008-015-291800-
EASTERN UPPER MICHIGAN

CITY           SKY/WX    TMP DP  RH WIND       PRES   REMARKS
KINROSS        SUNNY     66  53  63 E12       30.43S
MACKINAC ISLAN CLOUDY    60  55  83 E8        30.42S
NEWBERRY       SUNNY     67  52  58 N8        30.42S
S. S. MARIE    SUNNY     69  51  52 VRB7      30.42S
MUNISING         N/A     63  59  87 N15       30.45R
$$
MIZ004>006-011>014-085-291800-
CENTRAL UPPER MICHIGAN

CITY           SKY/WX    TMP DP  RH WIND       PRES   REMARKS
MANISTIQUE     SUNNY     71  54  56 N12       30.40F
ESCANABA       SUNNY     69  55  60 N12G21    30.41F
MENOMINEE      SUNNY     69  53  56 E15       30.39F
SAWYER-GWINN   MOSUNNY   63  54  72 NE14      30.47S
$$
MIZ001>003-009>011-084-291800-
WESTERN UPPER MICHIGAN

CITY           SKY/WX    TMP DP  RH WIND       PRES   REMARKS
IRON MOUNTAIN  SUNNY     67  52  58 N14       30.43F
HOUGHTON       CLOUDY    60  53  77 VRB3      30.50S
COPPER HARBOR    N/A     56  54  93 NE7       30.50S
IRONWOOD         N/A    N/A N/A N/A MISG        N/A
$$

ABBREVIATIONS USED IN REMARKS
   TC - TEMPERATURE IN CELSIUS
  WCI - WIND CHILL INDEX
   HX - HEAT INDEX
  VSB - VISIBILITY





USA.gov is the U.S. government's official web portal to all federal, state and local government web resources and services.